#timestamp,LO_Frequency,Hit 
1503169215.0,286047004.2,N
1503169215.9,286047004.2,N
1503169235.8,286047001.9,N
1503169255.6,286047004.0,N
1503169275.4,286047003.3,N
1503169295.3,286047003.7,N
1503169315.1,286047006.0,P
1503169335.8,286047001.4,N
1503169355.7,286047003.9,N
1503169375.5,286047001.4,N
1503169395.3,286047001.3,N
1503169415.2,286047001.9,N
1503169435.9,286047004.3,N
1503169455.7,286047003.9,N
1503169475.6,286047001.3,N
1503169495.4,286047003.9,N
1503169515.2,286047001.6,N
1503169535.1,286047001.9,N
1503169536.0,286047001.9,N
1503169555.8,286047001.8,N
1503169575.6,286047002.0,N
1503169595.5,286047004.1,P
1503169615.3,286046999.9,N
1503169635.1,286047001.1,N
1503169655.9,286047001.1,N
1503169675.7,286047001.1,N
1503169695.5,286047000.5,N
1503169715.3,286046998.2,N
1503169735.2,286047000.0,N
1503169755.0,286047002.2,N
1503169755.9,286047002.2,N
1503169775.7,286047000.3,N
1503169795.6,286047001.2,N
1503169815.4,286046998.1,N
1503169835.2,286047000.3,N
1503169855.1,286047002.1,N
1503169856.0,286047002.1,N
1503169875.8,286047002.2,N
1503169895.6,286047002.6,N
1503169915.5,286047002.1,N
1503169935.3,286047002.5,N
1503169955.1,286047001.5,N
1503169975.9,286047004.0,N
1503169995.7,286047001.5,N
1503170015.5,286047001.8,N
1503170035.4,286047002.6,N
1503170055.2,286047003.9,N
1503170075.0,286047002.4,N
1503170075.9,286047002.4,N
1503170095.7,286047001.5,N
1503170115.6,286047000.5,N
1503170135.4,286047002.8,N
1503170155.2,286047000.6,N
1503170175.1,286046999.8,N
1503170176.0,286046999.8,N
1503170195.8,286047002.4,N
1503170215.6,286047000.0,N
1503170235.5,286047001.7,N
1503170255.3,286047001.6,N
1503170275.1,286047004.4,P
1503170295.9,286047000.7,N
1503170315.7,286047001.2,N
1503170335.5,286046999.0,N
1503170355.4,286047000.7,N
1503170375.2,286046999.8,N
1503170395.0,286046999.8,N
1503170395.9,286046999.8,N
1503170415.8,286047002.8,N
1503170435.6,286047000.2,N
1503170455.4,286047001.9,N
1503170475.3,286047001.9,N
1503170495.1,286047004.1,N
1503170496.0,286047004.1,N
1503170515.8,286047003.6,N
1503170535.7,286047003.4,N
1503170555.5,286047003.7,N
1503170575.3,286047004.8,N
1503170595.1,286047004.1,N
1503170615.9,286047004.0,N
1503170635.8,286047003.8,N
1503170655.6,286047001.6,N
1503170675.5,286047000.0,N
1503170695.3,286047001.5,N
1503170715.1,286047004.2,N
1503170735.9,286047003.4,N
1503170755.7,286047006.0,P
1503170775.5,286047001.7,N
1503170795.4,286047001.9,N
1503170815.2,286047002.8,N
1503170835.0,286047002.5,N
1503170835.9,286047002.5,N
1503170855.8,286047002.4,N
1503170875.6,286047002.0,N
1503170895.4,286047001.6,N
1503170915.2,286047002.4,N
1503170935.1,286047001.3,N
1503170936.0,286047001.3,N
1503170955.8,286047001.5,N
1503170975.6,286047002.6,N
1503170995.5,286047000.3,N
1503171015.3,286046999.8,N
1503171035.1,286047002.5,N
1503171055.9,286047001.3,N
1503171075.7,286047002.7,N
1503171095.5,286047000.2,N
1503171115.4,286046996.9,N
1503171135.2,286046997.0,N
1503171155.0,286046994.9,N
1503171155.9,286046994.9,N
1503171175.8,286046996.8,N
1503171195.6,286046995.0,N
1503171215.4,286046997.1,N
1503171235.3,286046998.4,N
1503171255.1,286046998.3,N
1503171256.0,286046998.3,N
1503171275.8,286047000.9,N
1503171295.6,286047001.1,N
1503171315.5,286047002.8,N
1503171335.3,286047001.7,N
1503171355.1,286047002.3,N
1503171375.9,286047000.1,N
1503171395.7,286047001.8,N
1503171415.5,286047004.3,N
1503171435.4,286047004.3,N
1503171455.2,286047006.0,N
1503171475.0,286047005.7,N
1503171475.9,286047005.7,N
1503171495.8,286047005.9,N
1503171515.6,286047005.6,N
1503171535.4,286047007.6,N
1503171555.3,286047007.1,N
1503171575.1,286047006.4,N
1503171576.0,286047006.4,N
1503171595.8,286047007.1,N
1503171615.7,286047004.5,N
1503171635.5,286047007.4,N
1503171655.3,286047006.7,N
1503171675.1,286047009.0,N
1503171695.9,286047008.5,N
1503171715.7,286047009.1,N
1503171735.5,286047006.7,N
1503171755.4,286047006.9,N
1503171775.2,286047009.2,N
1503171795.0,286047006.5,N
1503171795.9,286047006.5,N
1503171815.8,286047006.2,N
1503171835.6,286047010.7,P
1503171855.4,286047001.3,N
1503171875.3,286047000.2,N
1503171895.1,286047002.2,N
1503171915.8,286047002.5,N
1503171935.7,286046999.9,N
1503171955.5,286047002.1,N
1503171975.3,286047002.5,N
1503171995.2,286047002.1,N
1503172015.9,286047002.6,N
1503172035.7,286046999.9,N
1503172055.6,286047000.6,N
1503172075.4,286047002.6,N
1503172095.2,286047000.3,N
1503172115.0,286046998.8,N
1503172115.9,286046998.8,N
1503172135.8,286047000.0,N
1503172155.6,286047004.0,N
1503172175.4,286047003.1,N
1503172195.3,286047001.4,N
1503172215.1,286047004.3,N
1503172216.0,286047004.3,N
1503172235.8,286047002.6,N
1503172255.7,286047002.7,N
1503172275.5,286047000.1,N
1503172295.3,286047000.1,N
1503172315.2,286047003.3,N
1503172335.9,286047001.4,N
1503172355.7,286047005.9,N
1503172375.5,286047005.6,N
1503172395.4,286047005.9,N
1503172415.2,286047004.8,N
1503172435.0,286047005.6,N
1503172435.9,286047005.6,N
1503172455.8,286047003.9,N
1503172475.6,286047003.9,N
1503172495.4,286047003.2,N
1503172515.3,286047003.6,N
1503172535.1,286047005.3,N
1503172536.0,286047005.3,N
1503172555.8,286047003.7,N
1503172575.7,286047006.0,N
1503172595.5,286047002.9,N
1503172615.3,286047007.5,P
1503172635.2,286047001.4,N
1503172655.9,286047004.4,N
1503172675.7,286047002.5,N
1503172695.6,286047004.3,N
1503172715.4,286047002.4,N
1503172735.2,286047001.6,N
1503172755.0,286047002.8,N
1503172756.0,286047002.8,N
1503172775.8,286046999.7,N
1503172795.6,286047002.3,N
